Location: Dürabuch
(48.2640°N, 11.2185°E)
Time: 18:29:55
(UTC+00:00)

CZ-2D R/B - Pass Details

Date: 25 May 2025
Orbit: 790 x 841 km, 98.8° (Epoch: 16 June)

Event Time Altitude Azimuth Distance (km) Brightness Sun altitude
Rises 01:18:57 0° 18° (NNE) 3,409 7.0 -15.2°
Reaches altitude 10° 01:21:23 10° 23° (NNE) 2,471 6.0 -15.0°
Maximum altitude 01:26:45 54° 100° (E) 1,019 2.7 -14.5°
Enters shadow 01:31:31 13° 176° (S) 2,238 3.9 -14.1°
